Погода в Хелене

США     46˚35′23″N   112˚01′13″W
темп.,
°C
ветер,
м/с
пор.,
м/с
влажн.,
%
обл.,
%
осадки,
мм/ч
давл.,
гПа
погр.,
м
5 декабря, сб
сб523:00−1˚ююз22520 0.0 103229
02:00−2˚ююз22522 0.0 103130
05:00−2˚ююз22441 0.0 103123
08:00−2˚ю22398 0.0 103027
11:00+3˚в12316 0.0 1028129
14:00+5˚всв11319 0.0 1024152
17:00ю22444 0.0 102527
20:00−1˚ююз23430 0.0 102536
6 декабря, вс
вс623:00−1˚ююз22440 0.0 102435
02:00−1˚ююз22450 0.0 102437
05:00−2˚ююз12410 0.0 102525
08:00−2˚ююз12400 0.0 102623
11:00+4˚ссв01300 0.0 1025132
14:00+6˚ссв11310 0.0 1024186
17:00+1˚юз22470 0.0 102722
20:00ююз23460 0.0 102726
7 декабря, пн
пн723:00ююз23460 0.0 103028
02:00−1˚ююз23510 0.0 103036
05:00−2˚ююз22540 0.0 103135
08:00−2˚ююз22530 0.0 103045
11:00+4˚ююв123710 0.0 1027160
14:00+6˚ю033614 0.0 1024210
17:00+1˚ююз235110 0.0 102631
20:00+2˚ююз3348100 0.0 102647
8 декабря, вт
вт823:00+2˚ююз2343100 0.0 102639
02:00+1˚ю234384 0.0 102548
05:00+1˚ю234192 0.0 102466
08:00+1˚ю2438100 0.0 102376
11:00+6˚ю3630100 0.0 1020253
14:00+7˚ю2534100 0.0 1017247
17:00+4˚ю4546100 0.0 101784
20:00+3˚ю464691 0.0 1018110
9 декабря, ср
ср923:00+2˚ююз235290 0.0 101930
02:00+1˚з1277100 0.0 102124
05:00ююз229399 0.4 102271
08:00−1˚ююз348296 0.1 102369
11:00+4˚зюз374698 0.1 10211311
14:00+4˚з4842100 0.0 10181412
17:00зюз2364100 0.0 101935
20:00−1˚юз3467100 0.0 102078